Hourly Data Report for April 10, 2018

KENORA A
ONTARIO
Current Station Operator: NAVCAN

49°47'18.000" N
94°21'47.000" W
409.70 m
6034076
71850
YQK

Download Data

Hourly Data (April 2018)
Hourly Data Report for April 10, 2018
TIME
LST
Temp Definition
°C
Dew Point Definition
°C
Rel Hum Definition
%
Precip. Amount Definition
mm

Wind Dir Definition
10's deg

Wind Spd Definition
km/h
Visibility Definition
km
Stn Press Definition
kPa
Hmdx Definition


Wind Chill Definition


Weather Definition


00:00 -6.2 -12.5 61   23 8 24.1 97.07   -10 Clear
01:00 -6.3 -10.3 74   22 12 24.1 97.05   -11 LegendNANA
02:00 -7.5 -10.2 81   22 10 24.1 97.01   -12 LegendNANA
03:00
04:00 -7.9 -9.2 91   22 9 24.1 96.93   -12 LegendNANA
05:00 -8.1 -9.0 94   22 9 24.1 96.91   -13 LegendNANA
06:00 -7.5 -8.4 93   20 9 12.9 96.86   -12 Snow
07:00 -7.1 -8.0 93   20 8 12.9 96.81   -11 Snow
08:00 -5.5 -6.8 90   20 9 16.1 96.77   -10 Snow
09:00 -4.4 -6.0 89   18 11 16.1 96.68   -9 Snow
10:00 -3.5 -5.5 86   21 17 9.7 96.64   -9 Snow
11:00 -2.9 -5.1 85   22 18 12.9 96.60   -9 Snow
12:00 -2.6 -4.7 85   22 16 19.3 96.51   -8 Snow
13:00 -1.8 -4.5 82   21 14 19.3 96.41   -6 Snow
14:00 -1.6 -4.8 79   23 22 16.1 96.33   -8 Snow
15:00 -1.4 -4.2 81   22 18 4.8 96.27   -7 Snow
16:00 -1.7 -3.3 89   21 16 3.2 96.24   -7 Snow
17:00 -1.6 -2.6 93   24 12 1.6 96.20   -6 Snow
18:00 -1.5 -2.7 91   23 9 8.1 96.15   -5 Snow
19:00 -2.3 -3.4 92   22 7 9.7 96.13   -5 Snow
20:00 -3.6 -4.7 93   23 7 16.1 96.13   -7 Snow
21:00 -4.0 -5.2 92   23 8 12.9 96.11   -7 Snow
22:00 -4.3 -5.7 90   23 9 12.9 96.10   -8 LegendNANA
23:00 -5.0 -6.3 90   23 9 12.9 96.03   -9 LegendNANA

Notes on Data Quality.

Legend

  • E = Estimated
  • M = Missing
  • NA = Not Available*
  • [empty] = Indicates an unobserved value
Date modified: